Location: Berkeley
(37.8716°N, 122.2727°W)
Time: 16:14:51
(UTC-07:00)

Envisat - Pass Details

Date: 12 May 2026
Orbit: 761 x 763 km, 98.4° (Epoch: 7 June)

Event Time Altitude Azimuth Distance (km) Brightness Sun altitude
Rises 03:50:15 0° 11° (N) 3,230 7.2 -21.9°
Reaches altitude 10° 03:52:33 10° 11° (N) 2,300 6.3 -21.6°
Maximum altitude 03:57:37 81° 285° (WNW) 774 2.9 -20.9°
Enters shadow 03:59:21 42° 203° (SSW) 1,068 3.3 -20.6°
